Starlink 1560

operational
NORAD ID: 46036 Int'l Des: 2020-055 Owner: SPXS Country: US Constellation: starlink
LEOCIRCULARSTARLINK_TYPE

About Starlink 1560

Description loading...

Live Position

Loading 3D Globe...

Upcoming Passes

Altitude History

Altitude vs Time

uPlot chart will show altitude changes over time

Two-Line Element Set

1 46036U 20055K 26036.08992330 -.00000777 00000-0 -33262-4 0 9995
2 46036 53.0550 272.9634 0001067 83.1262 276.9848 15.06393742303985
Epoch: Feb 5, 2026 • Age: 16 hours

Current Status

Altitude 547.6 km
Velocity 7.59 km/s
Sub-Earth Point 3.59°N, 134.75°W
Launch Date Aug 7, 2020
Age 5.4 years
Type internet

Technical Details

Classification Payload
Mass 260.00 kg
Dry Mass 248.00 kg
Total Mass 260.00 kg
Length 0.20 m
Diameter 2.80 m
Span 9.00 m
Shape Box + pan
Manufacturer SPXS
Bus Type Starlink
Phase Status In Orbit
Owner/State SPXS/US

Large Constellations

Loading constellations...